Weather History for K1F0 - May, 2013

Change the Weather History Date:

Wednesday, May 22, 2013

  Actual Average (KADM) Record (KADM)
Temperature  
Mean Temperature 66 °F -  
Max Temperature 82 °F 80 °F 100 °F (2005)
Min Temperature 50 °F 62 °F 48 °F (2013)
Cooling Degree Days 1    
Growing Degree Days 16 (Base 50)    
Moisture  
Dew Point 54 °F    
Average Humidity 70    
Maximum Humidity 100    
Minimum Humidity 30    
Precipitation  
Precipitation 0.00 in - - ()
Sea Level Pressure  
Sea Level Pressure 29.89 in    
Wind  
Wind Speed 2 mph (SW)    
Max Wind Speed 8 mph    
Max Gust Speed -    
Visibility 9 miles    
Events      
Averages and records for this station are not official NWS values.
T = Trace of Precipitation, MM = Missing Value Source: NWS Daily Summary

Daily Weather History Graph

Daily Weather History Graph

Search for Another Location

Airport or City:

Trip Planner

Search our weather history database for the weather conditions in past years. The results will help you decide how hot, cold, wet, or windy it might be!

Date:

Astronomy

May. 22, 2013 Rise Set
Actual Time 6:22 AM CDT 8:28 PM CDT
Civil Twilight 5:53 AM CDT 8:56 PM CDT
Nautical Twilight 5:19 AM CDT 9:31 PM CDT
Astronomical Twilight 4:42 AM CDT 10:08 PM CDT
Moon 5:58 PM CDT (5/22) 4:19 AM CDT (5/22)
Length of Visible Light 15h 03m
Length of Day
14h 06m
Waxing Gibbous, 91% of the Moon is Illuminated
May 22
Waxing Gibbous
May 24
Full
May 31
Last Quarter
Jun 8
New
Jun 16
First Quarter

Hourly Weather History & Observations

Time (CDT) Temp. Heat Index Dew Point Humidity Pressure Visibility Wind Dir Wind Speed Gust Speed Precip Events Conditions
12:15 AM 55.4 °F - 53.6 °F 94% 29.86 in 10.0 mi Calm Calm - N/A   Clear
12:35 AM 53.6 °F - 53.6 °F 100% 29.87 in 10.0 mi Calm Calm - N/A   Clear
12:55 AM 55.4 °F - 53.6 °F 94% 29.87 in 10.0 mi Calm Calm - N/A   Clear
1:15 AM 53.6 °F - 53.6 °F 100% 29.86 in 10.0 mi Calm Calm - N/A   Clear
1:35 AM 53.6 °F - 51.8 °F 94% 29.87 in 10.0 mi Calm Calm - N/A   Clear
1:55 AM 53.6 °F - 53.6 °F 100% 29.87 in 10.0 mi Calm Calm - N/A   Clear
2:15 AM 53.6 °F - 51.8 °F 94% 29.85 in 10.0 mi Calm Calm - N/A   Clear
2:35 AM 53.6 °F - 51.8 °F 94% 29.85 in 10.0 mi Calm Calm - N/A   Clear
2:55 AM 51.8 °F - 51.8 °F 100% 29.85 in 7.0 mi Calm Calm - N/A   Clear
3:15 AM 51.8 °F - 51.8 °F 100% 29.86 in 5.0 mi Calm Calm - N/A   Clear
3:35 AM 51.8 °F - 50.0 °F 94% 29.86 in 5.0 mi Calm Calm - N/A   Clear
3:55 AM 51.8 °F - 50.0 °F 94% 29.85 in 7.0 mi Calm Calm - N/A   Clear
4:15 AM 51.8 °F - 50.0 °F 94% 29.85 in 7.0 mi Calm Calm - N/A   Clear
4:35 AM 51.8 °F - 50.0 °F 94% 29.85 in 7.0 mi Calm Calm - N/A   Clear
4:55 AM 53.6 °F - 51.8 °F 94% 29.86 in 7.0 mi Calm Calm - N/A   Clear
5:15 AM 51.8 °F - 50.0 °F 94% 29.86 in 7.0 mi Calm Calm - N/A   Clear
5:35 AM 51.8 °F - 50.0 °F 94% 29.86 in 7.0 mi Calm Calm - N/A   Clear
5:55 AM 50.0 °F - 50.0 °F 100% 29.86 in 7.0 mi Calm Calm - N/A   Clear
6:15 AM 50.0 °F - 50.0 °F 100% 29.87 in 7.0 mi Calm Calm - N/A   Clear
6:35 AM 50.0 °F - 50.0 °F 100% 29.88 in 5.0 mi Calm Calm - N/A   Clear
6:55 AM 51.8 °F - 50.0 °F 94% 29.89 in 5.0 mi Calm Calm - N/A   Clear
7:15 AM 53.6 °F - 51.8 °F 94% 29.90 in 7.0 mi Calm Calm - N/A   Clear
7:35 AM 53.6 °F - 53.6 °F 100% 29.89 in 10.0 mi Calm Calm - N/A   Clear
7:55 AM 57.2 °F - 55.4 °F 94% 29.89 in 10.0 mi Calm Calm - N/A   Clear
8:15 AM 59.0 °F - 55.4 °F 88% 29.90 in 10.0 mi Calm Calm - N/A   Clear
8:35 AM 60.8 °F - 59.0 °F 94% 29.90 in 10.0 mi Calm Calm - N/A   Clear
8:55 AM 62.6 °F - 59.0 °F 88% 29.91 in 10.0 mi Calm Calm - N/A   Clear
9:15 AM 64.4 °F - 57.2 °F 77% 29.93 in 10.0 mi WSW 3.5 mph - N/A   Clear
9:35 AM 64.4 °F - 59.0 °F 83% 29.94 in 10.0 mi WSW 4.6 mph - N/A   Clear
9:55 AM 66.2 °F - 59.0 °F 78% 29.94 in 10.0 mi SW 4.6 mph - N/A   Clear
10:15 AM 68.0 °F - 59.0 °F 73% 29.95 in 10.0 mi West 3.5 mph - N/A   Clear
10:35 AM 69.8 °F - 57.2 °F 64% 29.96 in 10.0 mi West 6.9 mph - N/A   Clear
10:55 AM 71.6 °F - 59.0 °F 64% 29.95 in 10.0 mi West 5.8 mph - N/A   Clear
11:15 AM 71.6 °F - 59.0 °F 64% 29.95 in 10.0 mi West 5.8 mph - N/A   Clear
11:35 AM 73.4 °F - 57.2 °F 57% 29.95 in 10.0 mi SW 4.6 mph - N/A   Clear
11:55 AM 73.4 °F - 57.2 °F 57% 29.95 in 10.0 mi WSW 5.8 mph - N/A   Scattered Clouds
12:15 PM 75.2 °F - 57.2 °F 53% 29.94 in 10.0 mi West 4.6 mph - N/A   Scattered Clouds
12:35 PM 75.2 °F - 53.6 °F 47% 29.94 in 10.0 mi Calm Calm - N/A   Clear
12:55 PM 77.0 °F - 55.4 °F 47% 29.94 in 10.0 mi Calm Calm - N/A   Clear
1:15 PM 77.0 °F - 55.4 °F 47% 29.94 in 10.0 mi Calm Calm - N/A   Clear
1:35 PM 78.8 °F - 55.4 °F 44% 29.93 in 10.0 mi SW 3.5 mph - N/A   Clear
1:55 PM 78.8 °F - 53.6 °F 42% 29.93 in 10.0 mi South 4.6 mph - N/A   Clear
2:15 PM 78.8 °F - 53.6 °F 42% 29.92 in 10.0 mi WSW 5.8 mph - N/A   Clear
2:35 PM 78.8 °F - 53.6 °F 42% 29.92 in 10.0 mi SW 4.6 mph - N/A   Clear
2:55 PM 80.6 °F 80.5 °F 55.4 °F 42% 29.92 in 10.0 mi WSW 5.8 mph - N/A   Clear
3:15 PM 80.6 °F 80.3 °F 53.6 °F 39% 29.91 in 10.0 mi West 4.6 mph - N/A   Clear
3:35 PM 80.6 °F 80.5 °F 55.4 °F 42% 29.90 in 10.0 mi South 6.9 mph - N/A   Unknown
3:55 PM 80.6 °F 81.1 °F 59.0 °F 48% 29.89 in 10.0 mi South 6.9 mph - N/A   Unknown
4:15 PM 80.6 °F 80.8 °F 57.2 °F 45% 29.89 in 10.0 mi SSW 8.1 mph - N/A   Clear
4:35 PM 82.4 °F 81.7 °F 55.4 °F 39% 29.88 in 10.0 mi South 3.5 mph - N/A   Clear
4:55 PM 80.6 °F 80.3 °F 53.6 °F 39% 29.87 in 10.0 mi South 5.8 mph - N/A   Clear
5:15 PM 82.4 °F - 51.8 °F 35% 29.87 in 10.0 mi South 6.9 mph - N/A   Clear
5:35 PM 82.4 °F - 50.0 °F 32% 29.87 in 10.0 mi South 6.9 mph - N/A   Clear
5:55 PM 82.4 °F - 48.2 °F 30% 29.87 in 10.0 mi South 8.1 mph - N/A   Clear
6:15 PM 80.6 °F - 50.0 °F 34% 29.86 in 10.0 mi South 8.1 mph - N/A   Clear
6:35 PM 80.6 °F - 46.4 °F 30% 29.86 in 10.0 mi South 8.1 mph - N/A   Clear
6:55 PM 80.6 °F - 48.2 °F 32% 29.87 in 10.0 mi South 4.6 mph - N/A   Clear
7:15 PM 80.6 °F - 51.8 °F 37% 29.87 in 10.0 mi South 4.6 mph - N/A   Clear
7:35 PM 78.8 °F - 55.4 °F 44% 29.87 in 10.0 mi South 3.5 mph - N/A   Clear
7:55 PM 77.0 °F - 55.4 °F 47% 29.87 in 10.0 mi Calm Calm - N/A   Clear
8:15 PM 73.4 °F - 55.4 °F 53% 29.88 in 10.0 mi Calm Calm - N/A   Clear
8:35 PM 71.6 °F - 53.6 °F 53% 29.88 in 10.0 mi Calm Calm - N/A   Clear
8:55 PM 68.0 °F - 55.4 °F 64% 29.89 in 10.0 mi Calm Calm - N/A   Clear
9:15 PM 66.2 °F - 55.4 °F 68% 29.89 in 10.0 mi Calm Calm - N/A   Clear
9:35 PM 64.4 °F - 57.2 °F 77% 29.90 in 10.0 mi Calm Calm - N/A   Clear
9:55 PM 68.0 °F - 57.2 °F 68% 29.90 in 10.0 mi Calm Calm - N/A   Clear
10:15 PM 66.2 °F - 57.2 °F 73% 29.90 in 10.0 mi Calm Calm - N/A   Clear
10:35 PM 64.4 °F - 57.2 °F 77% 29.90 in 10.0 mi Calm Calm - N/A   Clear
10:55 PM 66.2 °F - 57.2 °F 73% 29.91 in 10.0 mi Calm Calm - N/A   Clear
11:15 PM 64.4 °F - 57.2 °F 77% 29.91 in 10.0 mi Calm Calm - N/A   Clear
11:35 PM 64.4 °F - 57.2 °F 77% 29.91 in 10.0 mi SSE 3.5 mph - N/A   Clear
11:55 PM 64.4 °F - 57.2 °F 77% 29.91 in 10.0 mi SSE 3.5 mph - N/A   Clear